Year,Month,Day,Hour,Minute,Value (Times are PST for temperature in C)
2008,05,16,00,00,11.10
2008,05,16,00,01,11.00
2008,05,16,00,02,11.00
2008,05,16,00,03,11.00
2008,05,16,00,04,11.00
2008,05,16,00,05,11.00
2008,05,16,00,06,10.90
2008,05,16,00,07,10.90
2008,05,16,00,08,10.90
2008,05,16,00,09,11.00
2008,05,16,00,10,11.00
2008,05,16,00,11,11.00
2008,05,16,00,12,11.00
2008,05,16,00,13,11.00
2008,05,16,00,14,11.00
2008,05,16,00,15,11.00
2008,05,16,00,16,11.00
2008,05,16,00,17,11.00
2008,05,16,00,18,11.10
2008,05,16,00,19,11.10
2008,05,16,00,20,11.10
2008,05,16,00,21,11.10
2008,05,16,00,22,11.10
2008,05,16,00,23,11.10
2008,05,16,00,24,11.10
2008,05,16,00,25,11.10
2008,05,16,00,26,11.10
2008,05,16,00,27,11.10
2008,05,16,00,28,11.10
2008,05,16,00,29,11.10
2008,05,16,00,30,11.10
2008,05,16,00,31,11.10
2008,05,16,00,32,11.10
2008,05,16,00,33,11.20
2008,05,16,00,34,11.20
2008,05,16,00,35,11.20
2008,05,16,00,36,11.20
2008,05,16,00,37,11.20
2008,05,16,00,38,11.20
2008,05,16,00,39,11.30
2008,05,16,00,40,11.30
2008,05,16,00,41,11.30
2008,05,16,00,42,11.30
2008,05,16,00,43,11.30
2008,05,16,00,44,11.30
2008,05,16,00,45,11.30
2008,05,16,00,46,11.30
2008,05,16,00,47,11.30
2008,05,16,00,48,11.30
2008,05,16,00,49,11.30
2008,05,16,00,50,11.40
2008,05,16,00,51,11.40
2008,05,16,00,52,11.40
2008,05,16,00,53,11.40
2008,05,16,00,54,11.40
2008,05,16,00,55,11.40
2008,05,16,00,56,11.40
2008,05,16,00,57,11.40
2008,05,16,00,58,11.40
2008,05,16,00,59,11.40
2008,05,16,01,00,11.30
2008,05,16,01,01,11.40
2008,05,16,01,02,11.50
2008,05,16,01,03,11.60
2008,05,16,01,04,11.60
2008,05,16,01,05,11.60
2008,05,16,01,06,11.70
2008,05,16,01,07,11.70
2008,05,16,01,08,11.70
2008,05,16,01,09,11.70
2008,05,16,01,10,11.70
2008,05,16,01,11,11.60
2008,05,16,01,12,11.60
2008,05,16,01,13,11.50
2008,05,16,01,14,11.40
2008,05,16,01,15,11.30
2008,05,16,01,16,11.30
2008,05,16,01,17,11.20
2008,05,16,01,18,11.20
2008,05,16,01,19,11.10
2008,05,16,01,20,11.10
2008,05,16,01,21,11.00
2008,05,16,01,22,10.90
2008,05,16,01,23,10.90
2008,05,16,01,24,10.80
2008,05,16,01,25,10.80
2008,05,16,01,26,10.70
2008,05,16,01,27,10.70
2008,05,16,01,28,10.70
2008,05,16,01,29,10.70
2008,05,16,01,30,10.70
2008,05,16,01,31,10.70
2008,05,16,01,32,10.70
2008,05,16,01,33,10.70
2008,05,16,01,34,10.70
2008,05,16,01,35,10.60
2008,05,16,01,36,10.60
2008,05,16,01,37,10.60
2008,05,16,01,38,10.60
2008,05,16,01,39,10.50
2008,05,16,01,40,10.50
2008,05,16,01,41,10.40
2008,05,16,01,42,10.40
2008,05,16,01,43,10.40
2008,05,16,01,44,10.40
2008,05,16,01,45,10.50
2008,05,16,01,46,10.50
2008,05,16,01,47,10.60
2008,05,16,01,48,10.60
2008,05,16,01,49,10.60
2008,05,16,01,50,10.60
2008,05,16,01,51,10.60
2008,05,16,01,52,10.60
2008,05,16,01,53,10.60
2008,05,16,01,54,10.60
2008,05,16,01,55,10.60
2008,05,16,01,56,10.60
2008,05,16,01,57,10.50
2008,05,16,01,58,10.50
2008,05,16,01,59,10.50
2008,05,16,02,00,10.40
2008,05,16,02,01,10.40
2008,05,16,02,02,10.40
2008,05,16,02,03,10.40
2008,05,16,02,04,10.40
2008,05,16,02,05,10.40
2008,05,16,02,06,10.40
2008,05,16,02,07,10.30
2008,05,16,02,08,10.30
2008,05,16,02,09,10.30
2008,05,16,02,10,10.30
2008,05,16,02,11,10.30
2008,05,16,02,12,10.30
2008,05,16,02,13,10.30
2008,05,16,02,14,10.30
2008,05,16,02,15,10.30
2008,05,16,02,16,10.30
2008,05,16,02,17,10.30
2008,05,16,02,18,10.30
2008,05,16,02,19,10.30
2008,05,16,02,20,10.20
2008,05,16,02,21,10.20
2008,05,16,02,22,10.20
2008,05,16,02,23,10.20
2008,05,16,02,24,10.10
2008,05,16,02,25,10.10
2008,05,16,02,26,10.10
2008,05,16,02,27,10.10
2008,05,16,02,28,10.10
2008,05,16,02,29,10.10
2008,05,16,02,30,10.10
2008,05,16,02,31,10.10
2008,05,16,02,32,10.10
2008,05,16,02,33,10.10
2008,05,16,02,34,10.10
2008,05,16,02,35,10.10
2008,05,16,02,36,10.10
2008,05,16,02,37,10.10
2008,05,16,02,38,10.10
2008,05,16,02,39,10.10
2008,05,16,02,40,10.20
2008,05,16,02,41,10.20
2008,05,16,02,42,10.30
2008,05,16,02,43,10.40
2008,05,16,02,44,10.50
2008,05,16,02,45,10.50
2008,05,16,02,46,10.60
2008,05,16,02,47,10.60
2008,05,16,02,48,10.50
2008,05,16,02,49,10.50
2008,05,16,02,50,10.40
2008,05,16,02,51,10.40
2008,05,16,02,52,10.40
2008,05,16,02,53,10.30
2008,05,16,02,54,10.30
2008,05,16,02,55,10.30
2008,05,16,02,56,10.30
2008,05,16,02,57,10.30
2008,05,16,02,58,10.30
2008,05,16,02,59,10.30
2008,05,16,03,00,10.40
2008,05,16,03,01,10.40
2008,05,16,03,02,10.40
2008,05,16,03,03,10.40
2008,05,16,03,04,10.40
2008,05,16,03,05,10.40
2008,05,16,03,06,10.40
2008,05,16,03,07,10.50
2008,05,16,03,08,10.50
2008,05,16,03,09,10.50
2008,05,16,03,10,10.50
2008,05,16,03,11,10.60
2008,05,16,03,12,10.60
2008,05,16,03,13,10.60
2008,05,16,03,14,10.60
2008,05,16,03,15,10.70
2008,05,16,03,16,10.70
2008,05,16,03,17,10.70
2008,05,16,03,18,10.80
2008,05,16,03,19,10.80
2008,05,16,03,20,10.80
2008,05,16,03,21,10.90
2008,05,16,03,22,10.90
2008,05,16,03,23,10.90
2008,05,16,03,24,10.90
2008,05,16,03,25,10.90
2008,05,16,03,26,11.00
2008,05,16,03,27,11.00
2008,05,16,03,28,11.10
2008,05,16,03,29,11.10
2008,05,16,03,30,11.10
2008,05,16,03,31,11.10
2008,05,16,03,32,11.10
2008,05,16,03,33,11.10
2008,05,16,03,34,11.10
2008,05,16,03,35,11.10
2008,05,16,03,36,11.10
2008,05,16,03,37,11.00
2008,05,16,03,38,11.00
2008,05,16,03,39,11.00
2008,05,16,03,40,10.90
2008,05,16,03,41,10.90
2008,05,16,03,42,10.90
2008,05,16,03,43,10.90
2008,05,16,03,44,10.90
2008,05,16,03,45,10.90
2008,05,16,03,46,10.90
2008,05,16,03,47,10.90
2008,05,16,03,48,10.90
2008,05,16,03,49,10.90
2008,05,16,03,50,10.90
2008,05,16,03,51,10.80
2008,05,16,03,52,10.80
2008,05,16,03,53,10.80
2008,05,16,03,54,10.80
2008,05,16,03,55,10.80
2008,05,16,03,56,10.80
2008,05,16,03,57,10.80
2008,05,16,03,58,10.80
2008,05,16,03,59,10.80
2008,05,16,04,00,10.70
2008,05,16,04,01,10.70
2008,05,16,04,02,10.70
2008,05,16,04,03,10.70
2008,05,16,04,04,10.70
2008,05,16,04,05,10.70
2008,05,16,04,06,10.70
2008,05,16,04,07,10.70
2008,05,16,04,08,10.60
2008,05,16,04,09,10.60
2008,05,16,04,10,10.60
2008,05,16,04,11,10.60
2008,05,16,04,12,10.50
2008,05,16,04,13,10.50
2008,05,16,04,14,10.40
2008,05,16,04,15,10.40
2008,05,16,04,16,10.40
2008,05,16,04,17,10.40
2008,05,16,04,18,10.40
2008,05,16,04,19,10.30
2008,05,16,04,20,10.30
2008,05,16,04,21,10.40
2008,05,16,04,22,10.40
2008,05,16,04,23,10.40
2008,05,16,04,24,10.30
2008,05,16,04,25,10.30
2008,05,16,04,26,10.30
2008,05,16,04,27,10.40
2008,05,16,04,28,10.40
2008,05,16,04,29,10.40
2008,05,16,04,30,10.40
2008,05,16,04,31,10.40
2008,05,16,04,32,10.40
2008,05,16,04,33,10.40
2008,05,16,04,34,10.40
2008,05,16,04,35,10.40
2008,05,16,04,36,10.40
2008,05,16,04,37,10.50
2008,05,16,04,38,10.50
2008,05,16,04,39,10.60
2008,05,16,04,40,10.60
2008,05,16,04,41,10.60
2008,05,16,04,42,10.60
2008,05,16,04,43,10.60
2008,05,16,04,44,10.60
2008,05,16,04,45,10.50
2008,05,16,04,46,10.50
2008,05,16,04,47,10.40
2008,05,16,04,48,10.40
2008,05,16,04,49,10.40
2008,05,16,04,50,10.40
2008,05,16,04,51,10.40
2008,05,16,04,52,10.40
2008,05,16,04,53,10.30
2008,05,16,04,54,10.30
2008,05,16,04,55,10.30
2008,05,16,04,56,10.30
2008,05,16,04,57,10.20
2008,05,16,04,58,10.20
2008,05,16,04,59,10.20
2008,05,16,05,00,10.20
2008,05,16,05,01,10.20
2008,05,16,05,02,10.10
2008,05,16,05,03,10.10
2008,05,16,05,04,10.10
2008,05,16,05,05,10.10
2008,05,16,05,06,10.10
2008,05,16,05,07,10.10
2008,05,16,05,08,10.10
2008,05,16,05,09,10.10
2008,05,16,05,10,10.10
2008,05,16,05,11,10.00
2008,05,16,05,12,10.00
2008,05,16,05,13,9.90
2008,05,16,05,14,9.90
2008,05,16,05,15,9.90
2008,05,16,05,16,9.80
2008,05,16,05,17,9.80
2008,05,16,05,18,9.80
2008,05,16,05,19,9.70
2008,05,16,05,20,9.70
2008,05,16,05,21,9.70
2008,05,16,05,22,9.70
2008,05,16,05,23,9.70
2008,05,16,05,24,9.60
2008,05,16,05,25,9.60
2008,05,16,05,26,9.60
2008,05,16,05,27,9.60
2008,05,16,05,28,9.60
2008,05,16,05,29,9.50
2008,05,16,05,30,9.50
2008,05,16,05,31,9.40
2008,05,16,05,32,9.40
2008,05,16,05,33,9.40
2008,05,16,05,34,9.40
2008,05,16,05,35,9.40
2008,05,16,05,36,9.40
2008,05,16,05,37,9.40
2008,05,16,05,38,9.30
2008,05,16,05,39,9.30
2008,05,16,05,40,9.30
2008,05,16,05,41,9.30
2008,05,16,05,42,9.30
2008,05,16,05,43,9.30
2008,05,16,05,44,9.30
2008,05,16,05,45,9.40
2008,05,16,05,46,9.30
2008,05,16,05,47,9.40
2008,05,16,05,48,9.40
2008,05,16,05,49,9.40
2008,05,16,05,50,9.40
2008,05,16,05,51,9.50
2008,05,16,05,52,9.50
2008,05,16,05,53,9.60
2008,05,16,05,54,9.60
2008,05,16,05,55,9.60
2008,05,16,05,56,9.60
2008,05,16,05,57,9.60
2008,05,16,05,58,9.50
2008,05,16,05,59,9.50
2008,05,16,06,00,9.50
2008,05,16,06,01,9.50
2008,05,16,06,02,9.40
2008,05,16,06,03,9.40
2008,05,16,06,04,9.40
2008,05,16,06,05,9.40
2008,05,16,06,06,9.40
2008,05,16,06,07,9.50
2008,05,16,06,08,9.50
2008,05,16,06,09,9.60
2008,05,16,06,10,9.60
2008,05,16,06,11,9.60
2008,05,16,06,12,9.60
2008,05,16,06,13,9.70
2008,05,16,06,14,9.70
2008,05,16,06,15,9.70
2008,05,16,06,16,9.70
2008,05,16,06,17,9.70
2008,05,16,06,18,9.70
2008,05,16,06,19,9.70
2008,05,16,06,20,9.70
2008,05,16,06,21,9.70
2008,05,16,06,22,9.70
2008,05,16,06,23,9.80
2008,05,16,06,24,9.80
2008,05,16,06,25,9.90
2008,05,16,06,26,9.90
2008,05,16,06,27,9.90
2008,05,16,06,28,9.90
2008,05,16,06,29,10.00
2008,05,16,06,30,10.00
2008,05,16,06,31,10.00
2008,05,16,06,32,10.00
2008,05,16,06,33,10.00
2008,05,16,06,34,10.10
2008,05,16,06,35,10.10
2008,05,16,06,36,10.10
2008,05,16,06,37,10.10
2008,05,16,06,38,10.20
2008,05,16,06,39,10.20
2008,05,16,06,40,10.20
2008,05,16,06,41,10.30
2008,05,16,06,42,10.30
2008,05,16,06,43,10.30
2008,05,16,06,44,10.30
2008,05,16,06,45,10.40
2008,05,16,06,46,10.40
2008,05,16,06,47,10.50
2008,05,16,06,48,10.50
2008,05,16,06,49,10.60
2008,05,16,06,50,10.60
2008,05,16,06,51,10.60
2008,05,16,06,52,10.70
2008,05,16,06,53,10.80
2008,05,16,06,54,10.80
2008,05,16,06,55,10.90
2008,05,16,06,56,11.00
2008,05,16,06,57,11.00
2008,05,16,06,58,11.10
2008,05,16,06,59,11.10
2008,05,16,07,00,11.10
2008,05,16,07,01,11.20
2008,05,16,07,02,11.20
2008,05,16,07,03,11.30
2008,05,16,07,04,11.40
2008,05,16,07,05,11.40
2008,05,16,07,06,11.50
2008,05,16,07,07,11.60
2008,05,16,07,08,11.60
2008,05,16,07,09,11.70
2008,05,16,07,10,11.80
2008,05,16,07,11,11.80
2008,05,16,07,12,11.90
2008,05,16,07,13,12.00
2008,05,16,07,14,12.10
2008,05,16,07,15,12.10
2008,05,16,07,16,12.20
2008,05,16,07,17,12.30
2008,05,16,07,18,12.40
2008,05,16,07,19,12.50
2008,05,16,07,20,12.60
2008,05,16,07,21,12.70
2008,05,16,07,22,12.90
2008,05,16,07,23,12.90
2008,05,16,07,24,13.10
2008,05,16,07,25,13.20
2008,05,16,07,26,13.30
2008,05,16,07,27,13.40
2008,05,16,07,28,13.50
2008,05,16,07,29,13.70
2008,05,16,07,30,13.80
2008,05,16,07,31,13.90
2008,05,16,07,32,14.00
2008,05,16,07,33,14.10
2008,05,16,07,34,14.30
2008,05,16,07,35,14.30
2008,05,16,07,36,14.40
2008,05,16,07,37,14.50
2008,05,16,07,38,14.60
2008,05,16,07,39,14.60
2008,05,16,07,40,14.70
2008,05,16,07,41,14.80
2008,05,16,07,42,15.00
2008,05,16,07,43,15.00
2008,05,16,07,44,15.00
2008,05,16,07,45,15.10
2008,05,16,07,46,15.20
2008,05,16,07,47,15.20
2008,05,16,07,48,15.20
2008,05,16,07,49,15.20
2008,05,16,07,50,15.20
2008,05,16,07,51,15.20
2008,05,16,07,52,15.10
2008,05,16,07,53,15.00
2008,05,16,07,54,15.00
2008,05,16,07,55,15.00
2008,05,16,07,56,15.00
2008,05,16,07,57,15.00
2008,05,16,07,58,15.00
2008,05,16,07,59,15.00
2008,05,16,08,00,15.00
2008,05,16,08,01,15.00
2008,05,16,08,02,15.00
2008,05,16,08,03,15.00
2008,05,16,08,04,15.00
2008,05,16,08,05,15.00
2008,05,16,08,06,15.00
2008,05,16,08,07,15.00
2008,05,16,08,08,15.00
2008,05,16,08,09,15.00
2008,05,16,08,10,15.00
2008,05,16,08,11,15.00
2008,05,16,08,12,15.00
2008,05,16,08,13,15.00
2008,05,16,08,14,15.00
2008,05,16,08,15,15.00
2008,05,16,08,16,15.10
2008,05,16,08,17,15.10
2008,05,16,08,18,15.10
2008,05,16,08,19,15.10
2008,05,16,08,20,15.00
2008,05,16,08,21,15.00
2008,05,16,08,22,15.00
2008,05,16,08,23,15.10
2008,05,16,08,24,15.20
2008,05,16,08,25,15.20
2008,05,16,08,26,15.20
2008,05,16,08,27,15.20
2008,05,16,08,28,15.30
2008,05,16,08,29,15.30
2008,05,16,08,30,15.30
2008,05,16,08,31,15.30
2008,05,16,08,32,15.30
2008,05,16,08,33,15.30
2008,05,16,08,34,15.30
2008,05,16,08,35,15.40
2008,05,16,08,36,15.40
2008,05,16,08,37,15.40
2008,05,16,08,38,15.40
2008,05,16,08,39,15.50
2008,05,16,08,40,15.50
2008,05,16,08,41,15.60
2008,05,16,08,42,15.60
2008,05,16,08,43,15.70
2008,05,16,08,44,15.70
2008,05,16,08,45,15.70
2008,05,16,08,46,15.70
2008,05,16,08,47,15.70
2008,05,16,08,48,15.70
2008,05,16,08,49,15.70
2008,05,16,08,50,15.70
2008,05,16,08,51,15.70
2008,05,16,08,52,15.70
2008,05,16,08,53,15.80
2008,05,16,08,54,15.80
2008,05,16,08,55,15.80
2008,05,16,08,56,15.80
2008,05,16,08,57,15.70
2008,05,16,08,58,15.70
2008,05,16,08,59,15.70
2008,05,16,09,00,15.60
2008,05,16,09,01,15.60
2008,05,16,09,02,15.60
2008,05,16,09,03,15.50
2008,05,16,09,04,15.50
2008,05,16,09,05,15.40
2008,05,16,09,06,15.40
2008,05,16,09,07,15.40
2008,05,16,09,08,15.40
2008,05,16,09,09,15.40
2008,05,16,09,10,15.40
2008,05,16,09,11,15.30
2008,05,16,09,12,15.30
2008,05,16,09,13,15.30
2008,05,16,09,14,15.40
2008,05,16,09,15,15.40
2008,05,16,09,16,15.40
2008,05,16,09,17,15.40
2008,05,16,09,18,15.30
2008,05,16,09,19,15.30
2008,05,16,09,20,15.30
2008,05,16,09,21,15.30
2008,05,16,09,22,15.40
2008,05,16,09,23,15.40
2008,05,16,09,24,15.40
2008,05,16,09,25,15.40
2008,05,16,09,26,15.30
2008,05,16,09,27,15.30
2008,05,16,09,28,15.20
2008,05,16,09,29,15.20
2008,05,16,09,30,15.20
2008,05,16,09,31,15.20
2008,05,16,09,32,15.20
2008,05,16,09,33,15.30
2008,05,16,09,34,15.30
2008,05,16,09,35,15.30
2008,05,16,09,36,15.30
2008,05,16,09,37,15.30
2008,05,16,09,38,15.30
2008,05,16,09,39,15.30
2008,05,16,09,40,15.30
2008,05,16,09,41,15.30
2008,05,16,09,42,15.30
2008,05,16,09,43,15.30
2008,05,16,09,44,15.30
2008,05,16,09,45,15.30
2008,05,16,09,46,15.30
2008,05,16,09,47,15.30
2008,05,16,09,48,15.30
2008,05,16,09,49,15.30
2008,05,16,09,50,15.30
2008,05,16,09,51,15.30
2008,05,16,09,52,15.30
2008,05,16,09,53,15.30
2008,05,16,09,54,15.30
2008,05,16,09,55,15.30
2008,05,16,09,56,15.40
2008,05,16,09,57,15.40
2008,05,16,09,58,15.30
2008,05,16,09,59,15.30
2008,05,16,10,00,15.30
2008,05,16,10,01,15.30
2008,05,16,10,02,15.40
2008,05,16,10,03,15.40
2008,05,16,10,04,15.50
2008,05,16,10,05,15.50
2008,05,16,10,06,15.60
2008,05,16,10,07,15.70
2008,05,16,10,08,15.70
2008,05,16,10,09,15.70
2008,05,16,10,10,15.80
2008,05,16,10,11,15.80
2008,05,16,10,12,15.80
2008,05,16,10,13,15.80
2008,05,16,10,14,15.80
2008,05,16,10,15,15.80
2008,05,16,10,16,15.80
2008,05,16,10,17,15.80
2008,05,16,10,18,15.80
2008,05,16,10,19,15.90
2008,05,16,10,20,15.90
2008,05,16,10,21,15.90
2008,05,16,10,22,15.90
2008,05,16,10,23,16.00
2008,05,16,10,24,16.10
2008,05,16,10,25,16.20
2008,05,16,10,26,16.20
2008,05,16,10,27,16.20
2008,05,16,10,28,16.30
2008,05,16,10,29,16.30
2008,05,16,10,30,16.30
2008,05,16,10,31,16.30
2008,05,16,10,32,16.30
2008,05,16,10,33,16.30
2008,05,16,10,34,16.30
2008,05,16,10,35,16.30
2008,05,16,10,36,16.30
2008,05,16,10,37,16.30
2008,05,16,10,38,16.40
2008,05,16,10,39,16.40
2008,05,16,10,40,16.40
2008,05,16,10,41,16.40
2008,05,16,10,42,16.30
2008,05,16,10,43,16.30
2008,05,16,10,44,16.30
2008,05,16,10,45,16.30
2008,05,16,10,46,16.30
2008,05,16,10,47,16.30
2008,05,16,10,48,16.30
2008,05,16,10,49,16.30
2008,05,16,10,50,16.30
2008,05,16,10,51,16.40
2008,05,16,10,52,16.50
2008,05,16,10,53,16.60
2008,05,16,10,54,16.70
2008,05,16,10,55,16.80
2008,05,16,10,56,16.90
2008,05,16,10,57,17.10
2008,05,16,10,58,17.20
2008,05,16,10,59,17.30
2008,05,16,11,00,17.50
2008,05,16,11,01,17.60
2008,05,16,11,02,17.60
2008,05,16,11,03,17.70
2008,05,16,11,04,17.70
2008,05,16,11,05,17.70
2008,05,16,11,06,17.80
2008,05,16,11,07,17.80
2008,05,16,11,08,17.80
2008,05,16,11,09,17.80
2008,05,16,11,10,17.90
2008,05,16,11,11,17.90
2008,05,16,11,12,17.80
2008,05,16,11,13,17.70
2008,05,16,11,14,17.70
2008,05,16,11,15,17.60
2008,05,16,11,16,17.50
2008,05,16,11,17,17.50
2008,05,16,11,18,17.40
2008,05,16,11,19,17.40
2008,05,16,11,20,17.50
2008,05,16,11,21,17.60
2008,05,16,11,22,17.70
2008,05,16,11,23,17.80
2008,05,16,11,24,17.80
2008,05,16,11,25,17.80
2008,05,16,11,26,17.80
2008,05,16,11,27,17.80
2008,05,16,11,28,17.80
2008,05,16,11,29,17.80
2008,05,16,11,30,17.80
2008,05,16,11,31,17.80
2008,05,16,11,32,17.80
2008,05,16,11,33,17.90
2008,05,16,11,34,17.90
2008,05,16,11,35,18.00
2008,05,16,11,36,18.10
2008,05,16,11,37,18.10
2008,05,16,11,38,18.20
2008,05,16,11,39,18.20
2008,05,16,11,40,18.10
2008,05,16,11,41,18.10
2008,05,16,11,42,18.10
2008,05,16,11,43,18.00
2008,05,16,11,44,18.00
2008,05,16,11,45,18.00
2008,05,16,11,46,18.00
2008,05,16,11,47,18.00
2008,05,16,11,48,18.10
2008,05,16,11,49,18.00
2008,05,16,11,50,18.00
2008,05,16,11,51,17.90
2008,05,16,11,52,17.90
2008,05,16,11,53,18.00
2008,05,16,11,54,18.10
2008,05,16,11,55,18.20
2008,05,16,11,56,18.20
2008,05,16,11,57,18.20
2008,05,16,11,58,18.20
2008,05,16,11,59,18.20
2008,05,16,12,00,18.20
2008,05,16,12,01,18.20
2008,05,16,12,02,18.20
2008,05,16,12,03,18.30
2008,05,16,12,04,18.30
2008,05,16,12,05,18.30
2008,05,16,12,06,18.30
2008,05,16,12,07,18.40
2008,05,16,12,08,18.40
2008,05,16,12,09,18.50
2008,05,16,12,10,18.60
2008,05,16,12,11,18.60
2008,05,16,12,12,18.70
2008,05,16,12,13,18.80
2008,05,16,12,14,18.80
2008,05,16,12,15,18.80
2008,05,16,12,16,18.90
2008,05,16,12,17,18.90
2008,05,16,12,18,18.90
2008,05,16,12,19,18.80
2008,05,16,12,20,18.80
2008,05,16,12,21,18.90
2008,05,16,12,22,18.90
2008,05,16,12,23,19.00
2008,05,16,12,24,19.00
2008,05,16,12,25,19.10
2008,05,16,12,26,19.30
2008,05,16,12,27,19.30
2008,05,16,12,28,19.40
2008,05,16,12,29,19.50
2008,05,16,12,30,19.60
2008,05,16,12,31,19.80
2008,05,16,12,32,19.90
2008,05,16,12,33,19.90
2008,05,16,12,34,20.00
2008,05,16,12,35,20.00
2008,05,16,12,36,19.90
2008,05,16,12,37,19.90
2008,05,16,12,38,19.90
2008,05,16,12,39,19.90
2008,05,16,12,40,20.00
2008,05,16,12,41,20.00
2008,05,16,12,42,20.10
2008,05,16,12,43,20.10
2008,05,16,12,44,20.10
2008,05,16,12,45,20.10
2008,05,16,12,46,20.10
2008,05,16,12,47,20.20
2008,05,16,12,48,20.30
2008,05,16,12,49,20.40
2008,05,16,12,50,20.30
2008,05,16,12,51,20.30
2008,05,16,12,52,20.20
2008,05,16,12,53,20.20
2008,05,16,12,54,20.30
2008,05,16,12,55,20.30
2008,05,16,12,56,20.30
2008,05,16,12,57,20.30
2008,05,16,12,58,20.30
2008,05,16,12,59,20.30
2008,05,16,13,00,20.20
2008,05,16,13,01,20.20
2008,05,16,13,02,20.20
2008,05,16,13,03,20.20
2008,05,16,13,04,20.20
2008,05,16,13,05,20.20
2008,05,16,13,06,20.20
2008,05,16,13,07,20.20
2008,05,16,13,08,20.30
2008,05,16,13,09,20.40
2008,05,16,13,10,20.50
2008,05,16,13,11,20.60
2008,05,16,13,12,20.60
2008,05,16,13,13,20.60
2008,05,16,13,14,20.70
2008,05,16,13,15,20.70
2008,05,16,13,16,20.80
2008,05,16,13,17,20.80
2008,05,16,13,18,20.70
2008,05,16,13,19,20.60
2008,05,16,13,20,20.50
2008,05,16,13,21,20.40
2008,05,16,13,22,20.40
2008,05,16,13,23,20.30
2008,05,16,13,24,20.00
2008,05,16,13,25,19.80
2008,05,16,13,26,19.70
2008,05,16,13,27,19.70
2008,05,16,13,28,19.70
2008,05,16,13,29,19.70
2008,05,16,13,30,19.60
2008,05,16,13,31,19.40
2008,05,16,13,32,19.30
2008,05,16,13,33,19.20
2008,05,16,13,34,19.30
2008,05,16,13,35,19.30
2008,05,16,13,36,19.40
2008,05,16,13,37,19.50
2008,05,16,13,38,19.60
2008,05,16,13,39,19.70
2008,05,16,13,40,19.90
2008,05,16,13,41,20.10
2008,05,16,13,42,20.20
2008,05,16,13,43,20.30
2008,05,16,13,44,20.40
2008,05,16,13,45,20.50
2008,05,16,13,46,20.60
2008,05,16,13,47,20.70
2008,05,16,13,48,20.80
2008,05,16,13,49,20.90
2008,05,16,13,50,21.00
2008,05,16,13,51,21.10
2008,05,16,13,52,21.20
2008,05,16,13,53,21.20
2008,05,16,13,54,21.30
2008,05,16,13,55,21.30
2008,05,16,13,56,21.30
2008,05,16,13,57,21.20
2008,05,16,13,58,21.00
2008,05,16,13,59,20.70
2008,05,16,14,00,20.40
2008,05,16,14,01,20.10
2008,05,16,14,02,19.90
2008,05,16,14,03,19.80
2008,05,16,14,04,19.70
2008,05,16,14,05,19.60
2008,05,16,14,06,19.50
2008,05,16,14,07,19.40
2008,05,16,14,08,19.40
2008,05,16,14,09,19.30
2008,05,16,14,10,19.30
2008,05,16,14,11,19.10
2008,05,16,14,12,19.00
2008,05,16,14,13,19.00
2008,05,16,14,14,19.00
2008,05,16,14,15,19.10
2008,05,16,14,16,19.10
2008,05,16,14,17,19.20
2008,05,16,14,18,19.30
2008,05,16,14,19,19.40
2008,05,16,14,20,19.60
2008,05,16,14,21,19.80
2008,05,16,14,22,19.90
2008,05,16,14,23,20.10
2008,05,16,14,24,20.20
2008,05,16,14,25,20.20
2008,05,16,14,26,20.30
2008,05,16,14,27,20.20
2008,05,16,14,28,20.20
2008,05,16,14,29,20.20
2008,05,16,14,30,20.10
2008,05,16,14,31,20.10
2008,05,16,14,32,20.20
2008,05,16,14,33,20.20
2008,05,16,14,34,20.20
2008,05,16,14,35,20.30
2008,05,16,14,36,20.30
2008,05,16,14,37,20.40
2008,05,16,14,38,20.40
2008,05,16,14,39,20.40
2008,05,16,14,40,20.30
2008,05,16,14,41,20.30
2008,05,16,14,42,20.30
2008,05,16,14,43,20.20
2008,05,16,14,44,20.20
2008,05,16,14,45,20.20
2008,05,16,14,46,20.20
2008,05,16,14,47,20.10
2008,05,16,14,48,20.10
2008,05,16,14,49,20.10
2008,05,16,14,50,20.10
2008,05,16,14,51,20.10
2008,05,16,14,52,20.10
2008,05,16,14,53,20.10
2008,05,16,14,54,20.20
2008,05,16,14,55,20.30
2008,05,16,14,56,20.30
2008,05,16,14,57,20.40
2008,05,16,14,58,20.50
2008,05,16,14,59,20.50
2008,05,16,15,00,20.50
2008,05,16,15,01,20.50
2008,05,16,15,02,20.50
2008,05,16,15,03,20.40
2008,05,16,15,04,20.50
2008,05,16,15,05,20.60
2008,05,16,15,06,20.60
2008,05,16,15,07,20.70
2008,05,16,15,08,20.80
2008,05,16,15,09,20.80
2008,05,16,15,10,20.90
2008,05,16,15,11,20.90
2008,05,16,15,12,20.90
2008,05,16,15,13,20.90
2008,05,16,15,14,20.90
2008,05,16,15,15,20.90
2008,05,16,15,16,20.90
2008,05,16,15,17,20.90
2008,05,16,15,18,20.80
2008,05,16,15,19,20.80
2008,05,16,15,20,20.80
2008,05,16,15,21,20.80
2008,05,16,15,22,20.90
2008,05,16,15,23,20.90
2008,05,16,15,24,21.00
2008,05,16,15,25,21.00
2008,05,16,15,26,21.10
2008,05,16,15,27,21.10
2008,05,16,15,28,21.20
2008,05,16,15,29,21.40
2008,05,16,15,30,21.50
2008,05,16,15,31,21.50
2008,05,16,15,32,21.50
2008,05,16,15,33,21.50
2008,05,16,15,34,21.50
2008,05,16,15,35,21.50
2008,05,16,15,36,21.50
2008,05,16,15,37,21.50
2008,05,16,15,38,21.50
2008,05,16,15,39,21.50
2008,05,16,17,38,24.20
2008,05,16,17,39,24.20
2008,05,16,17,40,24.30
2008,05,16,17,41,24.30
2008,05,16,17,42,24.30
2008,05,16,17,43,24.40
2008,05,16,17,44,24.40
2008,05,16,17,45,24.40
2008,05,16,17,46,24.40
2008,05,16,17,47,24.30
2008,05,16,17,48,24.30
2008,05,16,17,49,24.30
2008,05,16,17,50,24.20
2008,05,16,17,51,24.10
2008,05,16,17,52,24.10
2008,05,16,17,53,24.00
2008,05,16,17,54,23.90
2008,05,16,17,55,23.90
2008,05,16,17,56,23.90
2008,05,16,17,57,23.90
2008,05,16,17,58,23.90
2008,05,16,17,59,24.00
2008,05,16,18,00,24.00
2008,05,16,18,01,24.10
2008,05,16,18,02,24.10
2008,05,16,18,03,24.20
2008,05,16,18,04,24.20
2008,05,16,18,05,24.20
2008,05,16,18,06,24.20
2008,05,16,18,07,24.20
2008,05,16,18,08,24.20
2008,05,16,18,09,24.20
2008,05,16,18,10,24.20
2008,05,16,18,11,24.20
2008,05,16,18,12,24.20
2008,05,16,18,13,24.20
2008,05,16,18,14,24.10
2008,05,16,18,15,24.10
2008,05,16,18,16,24.10
2008,05,16,18,17,24.10
2008,05,16,18,18,24.10
2008,05,16,18,19,24.10
2008,05,16,18,20,24.10
2008,05,16,18,21,24.10
2008,05,16,18,22,24.20
2008,05,16,18,23,24.20
2008,05,16,18,24,24.20
2008,05,16,18,25,24.20
2008,05,16,18,26,24.20
2008,05,16,18,27,24.20
2008,05,16,18,28,24.20
2008,05,16,18,29,24.20
2008,05,16,18,30,24.30
2008,05,16,18,31,24.30
2008,05,16,18,32,24.50
2008,05,16,18,33,24.50
2008,05,16,18,34,24.60
2008,05,16,18,35,24.60
2008,05,16,18,36,24.60
2008,05,16,18,37,24.60
2008,05,16,18,38,24.50
2008,05,16,18,39,24.50
2008,05,16,18,40,24.50
2008,05,16,18,41,24.40
2008,05,16,18,42,24.40
2008,05,16,18,43,24.40
2008,05,16,18,44,24.40
2008,05,16,18,45,24.30
2008,05,16,18,46,24.30
2008,05,16,18,47,24.30
2008,05,16,18,48,24.30
2008,05,16,18,49,24.30
2008,05,16,18,50,24.30
2008,05,16,18,51,24.20
2008,05,16,18,52,24.20
2008,05,16,18,53,24.20
2008,05,16,18,54,24.20
2008,05,16,18,55,24.10
2008,05,16,18,56,24.10
2008,05,16,18,57,24.20
2008,05,16,18,58,24.20
2008,05,16,18,59,24.20
2008,05,16,19,00,24.30
2008,05,16,19,01,24.30
2008,05,16,19,02,24.40
2008,05,16,19,03,24.50
2008,05,16,19,04,24.60
2008,05,16,19,05,24.60
2008,05,16,19,06,24.70
2008,05,16,19,07,24.70
2008,05,16,19,08,24.80
2008,05,16,19,09,24.80
2008,05,16,19,10,24.90
2008,05,16,19,11,24.90
2008,05,16,19,12,24.90
2008,05,16,19,13,24.90
2008,05,16,19,14,24.90
2008,05,16,19,15,24.90
2008,05,16,19,16,24.90
2008,05,16,19,17,24.90
2008,05,16,19,18,25.00
2008,05,16,19,19,24.90
2008,05,16,19,20,24.90